Wind_Speed
26 26 25 25 25 25 26 24 23 22 21 20 18 18 18 18 19 18 18 17 14 14 14 14 14 14 14 14 15 15 16 16 16 15 14 15 15 15 16 16 16 16 16 16
26 26 25 25 25 25 26 25 24 23 21 20 19 18 19 18 19 19 18 17 16 15 15 15 15 15 15 16 16 16 16 17 16 16 15 15 16 16 16 16 16 16 16 16
25 25 25 26 26 25 25 25 24 22 21 21 20 19 19 18 19 19 19 18 17 16 16 16 16 16 16 17 17 17 16 16 16 16 16 16 17 16 17 16 16 16 16 16
25 26 26 25 25 25 25 24 23 22 21 21 20 21 20 20 19 20 19 19 18 17 17 16 17 17 17 17 17 18 18 17 17 17 18 17 17 17 17 16 17 17 17 16
26 26 26 26 25 24 25 24 23 22 21 21 21 22 22 21 21 21 21 20 20 19 19 19 19 18 18 18 18 18 19 19 18 18 18 18 18 17 17 17 17 17 16 17
27 25 25 26 24 24 24 25 24 23 22 22 22 23 23 23 23 23 22 22 22 22 20 20 19 19 18 18 18 19 19 19 19 19 19 18 18 18 18 18 18 17 17 17
28 27 26 26 24 24 24 24 23 23 23 22 23 23 23 23 23 23 23 22 22 22 22 21 20 19 19 18 18 18 18 18 18 19 18 18 18 18 18 17 17 17 17 17
29 28 28 26 25 26 25 24 24 24 24 23 23 23 23 23 23 23 23 22 22 23 22 21 21 20 19 19 18 18 18 17 17 17 18 18 18 18 18 18 18 18 19 19
31 30 29 27 26 26 25 25 25 25 25 25 24 23 23 23 23 23 22 22 21 22 22 21 21 20 20 20 19 19 18 19 18 18 18 18 19 19 19 19 20 21 21 21
33 31 29 27 27 27 26 26 26 26 26 26 26 25 25 25 25 24 23 22 22 21 22 22 21 21 21 20 20 20 19 20 20 19 19 19 19 20 20 21 22 22 23 23
33 32 30 29 28 27 27 27 26 26 26 27 27 26 26 26 26 25 24 24 22 22 22 21 21 21 21 20 20 20 19 19 20 20 20 20 20 21 21 21 22 23 24 25
33 32 32 30 29 28 28 27 26 26 26 26 26 26 26 26 26 26 25 25 24 23 22 22 21 21 21 21 20 20 20 19 20 20 20 20 21 21 21 22 23 24 24 24
32 32 32 31 30 29 28 28 27 27 26 26 26 26 26 26 26 26 25 25 24 23 22 22 22 22 22 22 21 21 20 20 20 21 21 21 21 21 21 22 23 23 23 24
30 31 31 31 30 29 28 28 28 28 27 26 26 26 26 26 26 25 25 24 24 24 23 23 23 23 22 22 21 22 21 20 20 20 20 20 20 20 20 21 22 22 23 24
29 30 30 30 29 29 28 28 28 28 28 27 27 27 27 26 26 25 25 25 25 24 24 24 23 22 22 22 21 21 21 20 19 19 19 19 19 19 20 21 22 22 23 24
28 29 30 30 30 29 29 28 28 28 28 28 27 27 26 26 26 26 25 24 24 24 23 23 23 22 23 23 22 21 21 20 20 19 19 19 19 20 20 21 21 22 23 24
28 29 30 29 29 28 28 28 28 28 27 27 27 27 27 27 27 26 26 25 25 24 23 23 23 23 22 21 21 21 20 19 19 19 19 19 20 20 21 22 23 23 24 24
27 28 28 28 29 28 27 27 28 28 27 26 26 27 26 27 27 27 26 25 24 23 23 21 21 21 20 20 19 19 19 19 18 19 19 21 21 22 22 22 23 23 24 24
25 26 26 27 27 28 27 26 27 27 26 26 26 25 24 24 24 24 24 23 22 22 22 21 20 19 19 19 19 19 19 19 19 20 21 21 22 22 23 23 24 24 25 25
25 25 25 25 26 26 26 26 26 26 26 26 25 25 24 24 24 24 23 23 22 21 20 19 18 18 18 18 19 18 19 20 20 21 22 22 23 23 24 24 25 25 26 27
24 24 24 24 24 24 24 25 25 26 25 25 24 24 23 23 23 24 23 22 21 21 20 19 18 18 18 19 19 19 20 21 21 22 22 23 24 24 24 24 25 25 26 27
22 23 23 23 24 23 23 23 24 24 24 23 23 23 22 21 22 22 22 22 20 20 20 19 19 19 19 20 20 20 21 21 22 22 23 24 25 25 25 24 24 25 26 26
21 21 21 22 22 21 21 21 22 21 22 22 21 21 21 21 20 20 20 20 19 19 19 20 20 20 20 20 20 21 21 22 22 23 24 24 25 25 24 24 25 25 26 27
20 20 20 21 22 21 20 20 20 20 20 20 20 20 20 20 19 18 18 18 18 18 19 19 19 20 20 20 21 21 22 22 22 23 23 23 23 24 25 25 26 27 27 28
20 20 20 20 20 19 19 19 19 19 18 18 18 18 17 16 16 16 16 17 17 18 18 19 19 19 19 20 20 21 21 21 21 22 22 23 23 24 25 25 26 26 27 28
19 20 20 20 19 18 18 18 18 18 17 17 17 16 16 16 15 15 16 16 16 16 16 16 17 17 18 19 19 19 19 20 21 21 22 23 23 24 24 25 25 26 26 26
19 19 19 19 18 18 17 17 17 17 18 17 16 16 16 15 15 15 15 15 15 15 15 16 17 18 18 18 18 19 20 20 21 21 22 23 23 23 23 24 25 25 26 26
Wind_Direction
215 220 222 223 224 225 227 228 230 233 235 238 236 234 234 236 237 239 244 251 254 251 251 254 257 261 266 271 274 275 274 278 277 274 275 276 275 276 274 272 272 272 272 269
218 220 222 223 224 226 228 228 229 232 235 236 237 236 235 236 236 238 244 248 251 250 249 252 256 260 263 268 271 274 276 276 276 273 273 275 276 276 276 273 271 270 270 269
219 221 224 226 225 226 227 227 229 232 233 233 233 234 235 235 236 236 240 245 248 246 248 252 256 259 262 266 270 274 275 274 272 271 272 274 274 278 277 273 269 270 270 268
220 223 225 228 227 227 228 229 229 230 231 232 230 231 232 233 234 234 237 243 246 245 248 254 257 259 261 266 270 274 272 269 268 271 273 273 273 275 276 273 272 274 271 268
221 226 228 230 229 228 229 230 229 229 228 229 229 230 230 233 234 234 237 242 245 248 251 254 257 258 261 265 270 274 271 266 268 269 272 272 268 270 273 274 275 275 272 270
221 224 230 231 229 229 230 231 229 230 229 229 228 230 231 232 234 236 239 242 247 250 252 252 254 257 262 266 271 272 270 266 266 266 269 268 267 269 271 273 274 274 273 271
223 226 230 230 226 227 228 229 229 230 230 227 226 229 230 231 233 236 240 242 245 248 251 251 252 255 262 268 272 272 270 266 264 264 266 267 268 270 270 270 271 273 273 272
226 229 232 229 226 226 228 229 228 229 228 227 227 228 228 228 231 235 239 242 245 247 251 251 252 255 260 265 270 272 270 266 265 264 266 265 266 268 269 268 269 272 273 274
228 230 233 231 229 228 228 228 228 227 227 228 228 228 229 229 232 236 239 242 244 246 249 252 254 258 263 266 268 269 269 267 267 264 267 266 265 265 268 269 270 270 272 275
230 232 233 232 230 229 228 229 229 229 229 229 230 230 231 231 233 236 239 243 246 247 251 253 255 259 263 267 267 267 268 268 267 266 265 266 267 268 268 269 272 273 273 275
230 231 231 230 229 228 228 228 229 230 230 230 231 232 233 233 235 237 239 242 246 249 250 254 258 260 262 265 267 268 269 267 265 265 266 267 270 270 271 272 274 276 276 278
227 227 228 229 228 228 228 229 229 228 228 229 231 232 232 233 234 236 240 242 246 248 250 255 259 260 261 264 265 266 269 268 266 266 267 268 271 273 273 273 274 275 276 277
225 225 226 226 227 228 228 227 227 227 228 230 230 230 231 232 235 238 240 242 244 247 250 254 258 258 259 262 264 264 266 267 267 268 269 271 273 274 275 275 275 276 277 278
225 224 222 222 225 226 227 227 227 228 229 229 230 231 231 232 235 237 239 243 245 248 250 253 256 257 258 260 263 263 262 264 267 267 269 272 274 274 275 276 277 277 278 279
223 222 220 220 223 225 226 227 227 228 228 228 230 231 231 232 234 236 240 244 245 247 249 251 253 255 257 259 262 262 261 262 263 266 269 272 274 275 276 277 277 278 281 282
221 219 218 220 221 222 223 224 225 227 228 228 230 232 233 233 234 236 240 244 244 245 246 247 250 254 257 258 260 261 262 263 265 267 271 274 276 278 280 282 282 284 285 287
218 216 217 218 217 219 221 223 225 228 228 228 229 232 234 236 236 237 240 243 243 241 243 246 249 252 254 254 258 262 263 265 267 268 271 275 278 281 282 283 285 286 287 289
215 214 215 216 217 219 221 224 225 225 225 227 229 231 234 235 235 237 239 240 240 239 242 246 248 249 250 253 256 259 262 265 267 270 274 278 281 282 284 285 287 289 290 290
211 211 212 214 216 219 222 222 223 223 224 227 228 230 231 232 231 232 234 235 234 236 239 244 244 244 249 253 257 260 262 265 269 272 276 278 280 282 284 286 288 290 291 292
207 209 210 211 213 216 217 219 220 221 224 225 225 226 229 231 230 230 230 229 230 231 235 240 242 246 250 254 258 261 266 270 274 277 278 278 281 283 285 286 289 291 291 291
204 205 207 210 213 215 216 218 219 219 220 222 224 226 228 228 225 224 225 226 229 231 236 241 245 249 253 256 258 263 268 272 275 278 281 283 283 285 287 288 289 291 292 292
203 206 208 211 212 213 214 215 216 216 217 218 219 222 223 222 222 224 226 229 231 234 238 244 250 254 258 259 261 265 269 272 275 278 282 285 287 287 288 288 290 291 291 292
202 205 207 208 209 209 208 210 211 213 214 215 216 218 220 221 222 224 226 229 234 239 244 250 254 258 262 264 266 269 271 274 277 280 283 285 286 287 288 289 290 292 292 293
202 204 204 204 205 205 207 208 209 209 210 212 214 215 216 218 220 223 227 233 238 246 251 253 257 260 263 266 269 271 273 275 278 281 283 285 286 287 288 290 291 293 293 293
202 203 203 202 203 205 207 209 210 211 208 208 210 212 215 218 223 229 235 241 246 251 253 256 259 261 265 270 273 276 278 280 282 284 285 286 287 288 289 290 291 292 293 294
199 199 198 199 202 205 205 205 207 207 206 206 208 212 217 223 229 235 240 245 248 250 254 258 261 265 270 274 278 280 281 283 285 287 288 288 288 289 290 291 291 292 294 297
196 197 198 200 202 202 204 203 203 204 203 205 209 213 218 226 233 238 242 246 248 254 260 264 267 270 272 275 277 280 284 287 287 288 289 290 291 292 293 294 296 297 299 300
Height
5810 5813 5817 5821 5825 5829 5833 5837 5842 5845 5847 5850 5851 5853 5855 5856 5858 5860 5861 5862 5863 5864 5865 5866 5866 5866 5866 5866 5866 5866 5866 5866 5866 5866 5866 5865 5865 5865 5864 5864 5864 5863 5863 5862
5804 5808 5812 5816 5820 5823 5827 5832 5836 5839 5842 5845 5846 5848 5850 5852 5854 5855 5857 5858 5859 5860 5861 5862 5862 5863 5863 5863 5863 5862 5862 5862 5862 5862 5862 5862 5862 5861 5860 5860 5860 5859 5859 5858
5801 5804 5807 5811 5815 5818 5822 5826 5830 5834 5838 5839 5841 5844 5846 5847 5849 5851 5852 5854 5855 5856 5857 5858 5858 5859 5859 5859 5859 5858 5858 5858 5858 5858 5858 5858 5857 5857 5856 5856 5855 5855 5855 5854
5796 5800 5803 5808 5810 5813 5817 5821 5824 5828 5831 5833 5836 5839 5841 5843 5845 5846 5848 5849 5850 5851 5853 5853 5854 5855 5855 5855 5855 5854 5854 5854 5854 5854 5854 5854 5853 5853 5853 5852 5851 5851 5850 5850
5791 5794 5798 5802 5805 5808 5812 5815 5819 5822 5825 5828 5831 5833 5835 5838 5840 5842 5843 5845 5846 5847 5848 5849 5849 5850 5850 5851 5850 5850 5850 5850 5850 5850 5849 5849 5849 5849 5848 5848 5847 5847 5846 5845
5785 5789 5793 5797 5800 5803 5807 5810 5813 5816 5820 5822 5825 5828 5831 5832 5834 5836 5838 5839 5841 5842 5843 5844 5844 5845 5845 5845 5845 5845 5845 5845 5845 5844 5844 5844 5844 5844 5844 5843 5843 5842 5842 5841
5778 5782 5786 5790 5794 5798 5803 5806 5808 5811 5813 5817 5820 5823 5825 5827 5829 5831 5833 5834 5836 5837 5838 5839 5840 5840 5841 5841 5840 5840 5839 5839 5839 5839 5839 5839 5839 5839 5839 5839 5839 5838 5837 5837
5772 5777 5782 5784 5788 5792 5796 5798 5801 5804 5808 5811 5814 5816 5819 5821 5823 5825 5827 5829 5830 5832 5833 5834 5835 5835 5836 5836 5835 5835 5834 5834 5834 5834 5834 5834 5834 5834 5834 5834 5833 5833 5833 5832
5766 5771 5774 5777 5781 5785 5789 5792 5795 5798 5801 5805 5808 5811 5813 5815 5818 5820 5822 5823 5825 5827 5828 5829 5830 5830 5831 5830 5830 5830 5829 5829 5829 5829 5829 5829 5829 5829 5829 5828 5828 5828 5828 5827
5758 5762 5767 5770 5774 5778 5782 5786 5789 5792 5795 5799 5802 5805 5807 5809 5812 5814 5816 5818 5820 5821 5823 5824 5824 5825 5825 5825 5825 5825 5825 5824 5824 5824 5824 5824 5824 5823 5823 5823 5823 5822 5822 5821
5750 5755 5760 5763 5767 5771 5775 5779 5782 5785 5789 5792 5795 5798 5801 5803 5806 5808 5811 5813 5814 5816 5817 5818 5819 5820 5820 5820 5820 5820 5820 5819 5819 5819 5819 5819 5818 5818 5817 5817 5817 5816 5815 5814
5743 5748 5752 5757 5761 5765 5768 5772 5776 5779 5782 5785 5789 5792 5794 5797 5800 5802 5805 5807 5808 5810 5811 5812 5813 5814 5814 5815 5815 5815 5814 5814 5814 5813 5813 5813 5813 5812 5811 5811 5810 5809 5808 5807
5735 5739 5744 5749 5754 5758 5761 5765 5769 5772 5776 5779 5782 5785 5788 5790 5793 5795 5798 5800 5802 5803 5805 5806 5807 5808 5808 5809 5809 5809 5809 5808 5808 5807 5807 5807 5806 5806 5805 5804 5803 5802 5802 5801
5727 5732 5737 5742 5746 5751 5755 5759 5762 5766 5769 5772 5776 5778 5781 5784 5787 5789 5791 5793 5795 5797 5798 5800 5801 5802 5802 5803 5803 5803 5803 5803 5802 5802 5801 5801 5800 5799 5799 5798 5797 5796 5795 5794
5721 5725 5730 5735 5740 5744 5747 5751 5755 5759 5762 5766 5769 5772 5775 5778 5780 5783 5785 5787 5789 5791 5792 5793 5794 5796 5797 5797 5797 5797 5797 5797 5797 5796 5796 5795 5794 5794 5793 5792 5791 5789 5788 5787
5714 5719 5723 5728 5733 5737 5740 5744 5748 5752 5755 5759 5762 5765 5768 5771 5774 5776 5779 5781 5782 5784 5786 5787 5788 5789 5790 5791 5791 5791 5792 5791 5791 5791 5790 5790 5789 5788 5787 5786 5785 5783 5782 5780
5708 5712 5717 5722 5726 5730 5734 5738 5742 5745 5749 5752 5756 5759 5762 5765 5767 5770 5772 5774 5776 5778 5780 5781 5782 5783 5784 5784 5785 5786 5786 5786 5786 5785 5785 5785 5784 5783 5781 5780 5778 5777 5775 5773
5702 5706 5711 5715 5720 5724 5728 5731 5735 5739 5742 5745 5749 5752 5755 5758 5760 5763 5765 5768 5770 5772 5774 5775 5776 5777 5778 5779 5779 5780 5781 5781 5781 5780 5780 5779 5778 5777 5776 5774 5772 5770 5769 5767
5696 5701 5705 5709 5714 5718 5721 5725 5729 5732 5736 5739 5743 5746 5749 5751 5754 5756 5759 5762 5764 5767 5769 5770 5771 5772 5773 5774 5774 5775 5775 5775 5775 5775 5774 5773 5772 5770 5769 5767 5766 5764 5762 5760
5692 5696 5700 5704 5708 5712 5716 5719 5723 5727 5730 5733 5736 5740 5743 5745 5748 5751 5753 5756 5759 5761 5763 5764 5766 5767 5768 5769 5769 5770 5770 5769 5769 5768 5767 5767 5765 5764 5762 5760 5759 5757 5755 5752
5688 5692 5696 5700 5703 5707 5710 5714 5717 5721 5724 5728 5731 5734 5737 5740 5742 5745 5748 5751 5753 5756 5758 5759 5761 5762 5762 5763 5764 5764 5763 5763 5763 5762 5761 5760 5758 5757 5755 5753 5751 5749 5747 5745
5684 5688 5692 5695 5699 5702 5706 5709 5713 5716 5719 5723 5726 5729 5732 5735 5738 5741 5744 5746 5748 5750 5753 5754 5755 5756 5757 5757 5757 5757 5757 5757 5756 5755 5754 5753 5751 5749 5748 5746 5744 5742 5739 5737
5681 5685 5688 5691 5695 5699 5702 5706 5709 5712 5715 5718 5722 5725 5728 5731 5734 5737 5739 5742 5744 5746 5748 5749 5750 5750 5751 5751 5751 5751 5751 5750 5749 5748 5747 5745 5744 5742 5740 5738 5736 5734 5732 5729
5678 5682 5685 5688 5692 5696 5699 5703 5706 5709 5712 5715 5718 5721 5725 5727 5730 5733 5735 5737 5739 5741 5742 5743 5744 5744 5745 5745 5745 5745 5744 5743 5742 5741 5739 5738 5736 5734 5733 5731 5729 5726 5724 5721
5676 5679 5683 5686 5690 5694 5697 5700 5703 5707 5709 5713 5715 5718 5721 5724 5727 5729 5731 5733 5735 5736 5737 5738 5738 5738 5739 5739 5738 5738 5737 5736 5735 5734 5732 5731 5729 5727 5725 5723 5721 5718 5716 5713
5674 5677 5681 5685 5688 5691 5694 5698 5701 5704 5707 5710 5713 5716 5719 5721 5723 5725 5727 5729 5730 5731 5732 5732 5732 5733 5733 5732 5732 5731 5730 5729 5728 5727 5725 5723 5721 5719 5717 5715 5713 5710 5708 5705
5672 5676 5679 5682 5686 5689 5692 5696 5699 5702 5705 5708 5711 5713 5716 5718 5720 5722 5723 5725 5725 5726 5727 5727 5727 5727 5727 5726 5726 5725 5724 5722 5721 5720 5718 5716 5714 5712 5710 5708 5706 5703 5700 5697